Regional Weather Roundup
Issued by NWS

Home | Current Version | Previous Version | Text Only | Print | Product List | Glossary On
Versions: 1 2 3 4 5 6 7 8 9 10 11 12 13 14 15 16 17 18 19 20 21 22 23 24 25 26 27 28 29 30 31 32 33 34 35 36 37 38 39 40 41 42 43 44 45 46 47 48 49 50
000
ASUS44 KOUN 301410
RWROK

WEATHER ROUNDUP FOR OKLAHOMA
NATIONAL WEATHER SERVICE NORMAN OK
900 AM CDT SUN APR 30 2017

NOTE: "FAIR" INDICATES FEW OR NO CLOUDS BELOW 12,000 FEET WITH NO
      SIGNIFICANT WEATHER AND/OR OBSTRUCTIONS TO VISIBILITY.

OKZ001>007-009>012-014-015-017-301500-
NORTHWEST OKLAHOMA AND THE PANHANDLE

CITY           SKY/WX    TMP DP  RH WIND       PRES   REMARKS
GAGE           LGT RAIN  38  35  89 NW26G40   29.54R WCI  26
ENID/WOODRING  CLOUDY    43  41  93 S13G18    29.53R FOG
$$

OKZ016-021>023-033>039-044-045-301500-
SOUTHWEST OKLAHOMA

CITY           SKY/WX    TMP DP  RH WIND       PRES   REMARKS
LAWTON/REGL    PTSUNNY   46  37  71 W21G37    29.67R
LAWTON/FT SILL PTSUNNY   45  38  75 W21G31    29.65R
FREDERICK      PTSUNNY   46  36  68 W31G38    29.68F
CLINTON          N/A    N/A N/A N/A MISG      29.61R
HOBART         CLOUDY    42  37  82 W21G26    29.64S WCI  33
ALTUS AFB      CLOUDY    45  34  65 W23G31    29.68S
$$

OKZ018>020-024>031-301500-
CENTRAL OKLAHOMA

CITY           SKY/WX    TMP DP  RH WIND       PRES   REMARKS
OKLAHOMA CITY  DRIZZLE   43  38  82 SW17G23   29.60R
OKC/WILEY POST LGT RAIN  43  40  89 SW20G25   29.59S WCI  34
OKC/TINKER AFB CLOUDY    43  37  79 SW23      29.59F WCI  33
GUTHRIE        LGT RAIN  43  40  89 SW13G21   29.58S
$$

OKZ008-013-054>072-301500-
NORTHEAST OKLAHOMA

CITY           SKY/WX    TMP DP  RH WIND       PRES   REMARKS
TULSA          PTSUNNY   53  46  77 S21G31    29.56F
TULSA/JONES    CLOUDY    52  43  71 S14G28    29.59F
PONCA CITY     PTSUNNY   48  43  82 S9G22     29.51F
BARTLESVILLE   CLOUDY    51  46  83 S9G18     29.55F
MUSKOGEE       CLOUDY    53  47  79 SW18G30   29.64S
$$

OKZ032-040>043-046>053-073>077-301500-
SOUTH CENTRAL/SOUTHEAST OKLAHOMA

CITY           SKY/WX    TMP DP  RH WIND       PRES   REMARKS
ARDMORE/DWNTWN CLOUDY    46  36  66 W7G21     29.73F
MCALESTER      CLOUDY    50  42  74 SW24G33   29.69F
$$





USA.gov is the U.S. government's official web portal to all federal, state and local government web resources and services.